GW3602 Weather Reports


Display with metric or nautical units.
time (UTC)temp
F
wind
direction
speed
MPH
gust
MPH
rain 1hr
in
rain 24hr
in
rain mn
in
humidity
%
barometer
mb
20260508224527 51 146 0.0 2.0 0.09 0.14 0.14 85 1010.4
20260508223033 51 295 0.0 3.0 0.06 0.11 0.11 83 1010.3
20260508221518 52 229 0.0 3.0 0.02 0.07 0.07 79 1010.4
20260508220025 52 265 0.0 2.0 0.00 0.05 0.05 78 1009.8
20260508214531 52 276 0.0 2.0 0.01 0.05 0.05 78 1010.0
20260508213014 52 160 1.0 6.0 0.01 0.05 0.05 77 1010.1
20260508211514 53 145 0.0 6.0 0.01 0.05 0.05 77 1010.2
20260508210003 53 186 2.0 7.0 0.01 0.05 0.05 76 1010.4
20260508204515 54 134 2.0 10.0 0.00 0.04 0.04 73 1010.6
20260508203007 55 240 2.0 10.0 0.00 0.04 0.04 70 1010.9
20260508201512 56 221 1.0 9.0 0.00 0.04 0.04 67 1010.9
20260508200015 57 209 2.0 9.0 0.00 0.04 0.04 66 1010.9
20260508194504 57 274 2.0 7.0 0.00 0.04 0.04 66 1010.9
20260508193006 59 188 1.0 7.0 0.00 0.04 0.04 64 1010.9
20260508191509 59 284 3.0 12.0 0.00 0.04 0.04 63 1011.1
20260508190022 60 89 2.0 8.0 0.00 0.04 0.04 63 1011.1
20260508184520 59 205 3.0 10.0 0.00 0.04 0.04 64 1011.1
20260508183021 59 215 4.0 9.0 0.00 0.04 0.04 64 1011.2
20260508181506 58 212 3.0 8.0 0.00 0.04 0.04 66 1011.4
20260508180017 57 283 2.0 6.0 0.00 0.04 0.04 66 1011.8
20260508174516 56 257 2.0 8.0 0.00 0.04 0.04 65 1011.8
20260508173021 57 257 2.0 7.0 0.00 0.04 0.04 65 1011.8
20260508171529 59 257 4.0 11.0 0.00 0.04 0.04 59 1011.7
20260508170008 59 158 4.0 11.0 0.00 0.04 0.04 60 1011.9
20260508164514 58 306 2.0 6.0 0.00 0.04 0.04 64 1012.0
20260508163015 57 161 1.0 7.0 0.00 0.04 0.04 64 1012.1
20260508161522 57 295 2.0 5.0 0.00 0.04 0.04 64 1012.2
20260508160048 57 331 2.0 6.0 0.00 0.04 0.04 64 1012.4
20260508154511 56 6 1.0 5.0 0.00 0.04 0.04 68 1012.6
20260508153017 56 301 2.0 4.0 0.00 0.04 0.04 69 1012.6
20260508151517 54 252 1.0 5.0 0.00 0.04 0.04 69 1012.7
20260508150027 53 295 2.0 7.0 0.00 0.04 0.04 69 1012.8
20260508144526 53 298 2.0 7.0 0.00 0.04 0.04 71 1012.8
20260508143010 52 293 2.0 5.0 0.00 0.04 0.04 73 1012.8
20260508141518 51 246 0.0 2.0 0.01 0.04 0.04 77 1012.8
20260508140021 49 256 0.0 1.0 0.01 0.04 0.04 80 1012.8
20260508134531 49 194 0.0 1.0 0.04 0.04 0.04 80 1012.8
20260508133026 48 264 0.0 1.0 0.04 0.04 0.04 80 1012.9
20260508131512 47 306 1.0 4.0 0.03 0.03 0.03 78 1013.2
20260508130019 48 252 0.0 2.0 0.03 0.03 0.03 76 1013.3
20260508124522 49 227 0.0 1.0 0.00 0.00 0.00 73 1013.1
20260508123009 48 227 0.0 3.0 0.00 0.00 0.00 72 1013.0
20260508121541 48 290 0.0 3.0 0.00 0.00 0.00 73 1012.7
20260508120014 48 288 3.0 5.0 0.00 0.00 0.00 72 1012.6
20260508114514 48 297 1.0 4.0 0.00 0.00 0.00 72 1012.4
20260508113006 48 255 0.0 4.0 0.00 0.00 0.00 72 1012.0
20260508111510 46 169 1.0 6.0 0.00 0.00 0.00 74 1012.1
20260508110013 45 288 0.0 3.0 0.00 0.00 0.00 76 1012.2
20260508104518 44 173 0.0 2.0 0.00 0.00 0.00 77 1012.3
20260508103018 43 279 0.0 2.0 0.00 0.00 0.00 79 1012.0
20260508101508 43 124 0.0 1.0 0.00 0.00 0.00 78 1012.0
20260508100012 44 141 0.0 3.0 0.00 0.00 0.00 77 1012.1
20260508094517 44 259 0.0 3.0 0.00 0.00 0.00 77 1012.1
20260508093024 44 94 0.0 2.0 0.00 0.00 0.00 77 1012.0
20260508091522 44 244 0.0 3.0 0.00 0.00 0.00 76 1012.1
20260508090014 44 221 1.0 4.0 0.00 0.00 0.00 75 1012.1
20260508084514 45 278 0.0 3.0 0.00 0.00 0.00 74 1012.2
20260508083104 45 230 0.0 2.0 0.00 0.00 0.00 73 1012.2
20260508081522 46 236 0.0 2.0 0.00 0.00 0.00 71 1012.3
20260508080025 46 128 1.0 4.0 0.00 0.00 0.00 69 1012.3
20260508074510 47 186 1.0 6.0 0.00 0.00 0.00 68 1012.3
20260508073012 47 225 2.0 8.0 0.00 0.00 0.00 67 1012.2
20260508071524 46 212 0.0 6.0 0.00 0.00 0.00 67 1012.2
20260508070025 46 270 1.0 5.0 0.00 0.00 0.00 66 1012.2
20260508064542 46 158 0.0 3.0 0.00 0.00 0.00 66 1012.2
20260508063025 46 188 1.0 4.0 0.00 0.00 0.00 66 1012.3
20260508061519 46 214 0.0 3.0 0.00 0.00 0.00 66 1012.4
20260508060023 46 176 0.0 2.0 0.00 0.00 0.00 67 1012.5
20260508054523 45 154 0.0 1.0 0.00 0.00 0.00 67 1012.7
20260508053026 45 214 0.0 1.0 0.00 0.00 0.00 68 1013.0
20260508051528 45 240 0.0 3.0 0.00 0.00 0.00 67 1013.2
20260508050018 45 209 0.0 1.0 0.00 0.00 0.00 67 1013.2
20260508044524 44 165 0.0 2.0 0.00 0.00 0.00 66 1013.2
20260508043032 44 134 0.0 2.0 0.00 0.00 0.00 65 1013.2
20260508041527 44 309 0.0 3.0 0.00 0.00 0.00 64 1013.2
20260508040027 44 268 0.0 2.0 0.00 0.00 0.00 63 1013.3
20260508034520 44 225 0.0 2.0 0.00 0.00 0.00 61 1013.2
20260508033022 44 206 0.0 2.0 0.00 0.00 0.00 61 1013.2
20260508031524 44 160 0.0 1.0 0.00 0.00 0.00 60 1013.2
20260508030014 44 158 0.0 1.0 0.00 0.00 0.00 59 1013.2
20260508024524 44 160 0.0 0.0 0.00 0.00 0.00 58 1013.2
20260508023033 44 162 0.0 1.0 0.00 0.00 0.00 58 1013.1
20260508021523 45 166 0.0 1.0 0.00 0.00 0.00 57 1013.1
20260508020014 45 151 0.0 0.0 0.00 0.00 0.00 57 1013.1
20260508014519 45 137 0.0 1.0 0.00 0.00 0.00 56 1013.0
20260508013017 45 211 0.0 1.0 0.00 0.00 0.00 55 1013.0
20260508011525 46 211 0.0 1.0 0.00 0.00 0.00 53 1012.9
20260508010031 48 277 0.0 1.0 0.00 0.00 0.00 51 1012.7
20260508004511 49 275 0.0 2.0 0.00 0.00 0.00 49 1012.7
20260508003013 50 281 1.0 7.0 0.00 0.00 0.00 46 1012.6
20260508001519 51 288 3.0 7.0 0.00 0.00 0.00 44 1012.6
20260508000021 52 303 3.0 9.0 0.00 0.00 0.00 43 1012.4
20260507234526 52 305 2.0 12.0 0.00 0.00 0.00 44 1012.3
20260507233012 53 313 7.0 12.0 0.00 0.00 0.00 43 1012.3
20260507231516 53 279 7.0 13.0 0.00 0.00 0.00 43 1012.3
20260507230020 54 292 6.0 12.0 0.00 0.00 0.00 41 1012.4